This is the latest recevied weather packets stored in our database for station/object KJ5JYX. If no packets are shown the sender has not sent any weather packets the latest 10 day(s).
| Time | Temp. | Humidity | Pressure | Rain* | Wind** | Luminosity | Snow |
|---|---|---|---|---|---|---|---|
| 1778107599 | 17.22° C | 87% | 1014.3 hPa | 0 mm | - | 82 W/m² | - |
| 1778107296 | 17.22° C | 87% | 1014.4 hPa | 0 mm | - | 84 W/m² | - |
| 1778106992 | 17.22° C | 86% | 1014.2 hPa | 0 mm | - | 89 W/m² | - |
| 1778106688 | 17.22° C | 85% | 1014.2 hPa | 0 mm | - | 102 W/m² | - |
| 1778106386 | 17.22° C | 85% | 1014.4 hPa | 0 mm | - | 96 W/m² | - |
| 1778106082 | 17.22° C | 85% | 1014 hPa | 0 mm | - | 182 W/m² | - |
| 1778105780 | 17.22° C | 86% | 1014.2 hPa | 0 mm | - | 187 W/m² | - |
| 1778105477 | 17.22° C | 87% | 1013.8 hPa | 0 mm | - | 205 W/m² | - |
| 1778105174 | 16.67° C | 87% | 1013.8 hPa | 0 mm | - | 197 W/m² | - |
| 1778104869 | 16.67° C | 87% | 1013.9 hPa | 0 mm | - | 110 W/m² | - |
| 1778104566 | 16.67° C | 86% | 1014.2 hPa | 0 mm | - | 109 W/m² | - |
| 1778104261 | 16.67° C | 88% | 1014.2 hPa | 0 mm | - | 126 W/m² | - |
| 1778103959 | 16.11° C | 88% | 1014 hPa | 0 mm | - | 161 W/m² | - |
| 1778103656 | 16.11° C | 87% | 1014.3 hPa | 0 mm | - | 110 W/m² | - |
| 1778103354 | 16.11° C | 88% | 1014.3 hPa | 0 mm | - | 120 W/m² | - |
| 1778103051 | 16.11° C | 89% | 1014.4 hPa | 0 mm | - | 127 W/m² | - |
| 1778102747 | 16.11° C | 88% | 1014.6 hPa | 0 mm | - | 127 W/m² | - |
| 1778102442 | 16.11° C | 89% | 1014.3 hPa | 0 mm | - | 91 W/m² | - |
| 1778102139 | 16.11° C | 89% | 1014.5 hPa | 0 mm | - | 99 W/m² | - |
| 1778101836 | 16.11° C | 89% | 1014.5 hPa | 0 mm | - | 87 W/m² | - |
| 1778101532 | 16.11° C | 89% | 1014.3 hPa | 0 mm | - | 129 W/m² | - |
| 1778101229 | 16.11° C | 89% | 1014.7 hPa | 0 mm | - | 92 W/m² | - |
| 1778100926 | 16.11° C | 89% | 1014.6 hPa | 0 mm | - | 124 W/m² | - |
| 1778100621 | 15.56° C | 89% | 1014.4 hPa | 0 mm | - | 107 W/m² | - |
| 1778100320 | 15.56° C | 90% | 1014.6 hPa | 0 mm | - | 146 W/m² | - |
* Rain latest hour (hover to see other rain measurements)
** Current wind speed in m/s (hover to see current wind gust speed)